[[{"header":{"parameterUnit":"m.s-1","parameterCategory":1,"la1":30.2991,"la2":30.254,"lo1":-89.0895,"lo2":-89.0444,"dy":0.0017,"dx":0.0017,"nx":28,"ny":28,"refTime":"2025-03-10T21:00:00:Z","depth":0,"parameterNumber":2,"parameterNumberName":"U-component_of_WINDS"},"data":[0,0,0,0,0,0,0,0,0,0,0,0,0,0,0,0,0,0,0,0,0,0,0,0,0,0,0,0,0,0,0,0,0,0,0,0,0,0,0,0,0,0,0,0,0,0,0,0,0,0,0,0,0,0,0,0,0,0,2.5951,2.5952,0,2.6047,2.6048,2.6049,2.6074,2.6074,2.6073,2.6072,2.617,2.6173,2.6176,0,0,0,0,0,0,0,0,0,0,0,0,0,2.5788,2.5791,2.5951,2.5952,2.5953,2.6047,2.6048,2.6049,2.6074,2.6074,2.6073,2.6072,2.6169,2.6173,2.6177,0,0,0,0,0,0,0,0,0,0,0,0,0,2.5869,2.5792,2.5951,2.5977,2.598,2.6046,2.6048,2.605,2.6074,2.6073,2.6073,2.6072,2.6168,2.6172,2.6177,2.6224,0,0,2.6191,2.6194,0,0,0,0,0,0,0,0,2.5864,2.5875,2.5972,2.5975,2.5979,2.6048,2.6026,2.6108,2.6075,2.6039,2.6072,2.6071,2.613,2.6138,2.6158,2.6228,2.6232,2.6192,2.6195,2.6197,2.6198,0,0,0,0,0,0,0,2.5859,2.5871,2.5989,2.5973,2.5978,2.5984,2.5994,2.6042,2.6088,2.6042,2.6044,2.6055,2.6132,2.6153,2.616,2.6234,2.6192,2.6196,2.6199,2.6201,2.6345,2.6346,0,0,0,0,0,0,2.5849,2.5866,2.5986,2.5992,2.5918,2.5987,2.5999,2.6027,2.6088,2.6096,2.6055,2.6056,2.6145,2.6155,2.6164,2.6221,2.6197,2.6201,2.6204,2.6344,2.6345,2.6346,0,0,0,0,0,0,2.5845,2.5859,2.5982,2.5929,2.5945,2.5991,2.6022,2.6029,2.605,2.6098,2.6106,2.6069,2.6145,2.6157,2.6208,2.6224,2.6203,2.6208,2.6343,2.6344,2.6346,2.6336,0,0,0,0,0,0,2.584,2.5858,2.5876,2.593,2.5948,2.6025,2.6023,2.6031,2.6058,2.6059,2.6113,2.6121,2.6145,2.6201,2.6213,2.6231,2.6211,2.6341,2.6343,2.6345,2.6335,2.6337,2.6338,0,0,0,0,0,2.5834,2.587,2.5877,2.5891,2.5972,2.6026,2.6037,2.6064,2.6059,2.6078,2.6108,2.6119,2.6221,2.6206,2.6219,2.6239,2.6341,2.6343,2.6345,2.6334,2.6336,2.6338,0,0,0,0,0,0,2.5818,2.5877,2.5886,2.594,2.5978,2.603,2.6055,2.6066,2.6106,2.6106,2.6138,2.615,2.6198,2.6224,2.6206,2.6286,2.6281,2.6286,2.6268,2.627,2.6272,2.6265,2.6215,0,0,0,0,0,2.582,2.5859,2.5909,2.5952,2.597,2.6009,2.6034,2.6052,2.6092,2.6108,2.6142,2.6181,2.6221,2.6247,2.6287,2.6339,2.635,2.6359,2.636,2.6362,2.6365,2.6393,2.6397,2.6354,2.6354,2.6354,0,0,2.5826,2.5863,2.5886,2.5949,2.5981,2.6019,2.6022,2.6064,2.6093,2.6114,2.6164,2.619,2.6235,2.6286,2.631,2.6309,2.638,2.6365,2.6365,2.6368,2.6395,2.6399,2.6403,2.6355,2.6355,2.6355,0,0,2.5856,2.5889,2.5927,2.5958,2.6005,2.6031,2.604,2.609,2.6108,2.6159,2.6176,2.621,2.628,2.631,2.6335,2.6375,2.6385,2.6387,2.6396,2.6422,2.6426,2.6429,2.6442,2.6446,2.6391,2.6391,2.6391,0,2.5857,2.5917,2.5946,2.5986,2.6012,2.6033,2.6072,2.6101,2.6158,2.6176,2.6174,2.626,2.6292,2.6349,2.6359,2.6379,2.6389,2.6381,2.6423,2.6426,2.643,2.6442,2.6447,2.6391,2.6391,2.6391,2.6391,0,2.5915,2.5956,2.5981,2.6036,2.6065,2.6104,2.6138,2.6165,2.618,2.6205,2.6255,2.6294,2.6342,2.6357,2.6372,2.6416,2.6413,2.6417,2.6412,2.6433,2.6445,2.6451,2.639,2.639,2.639,2.6391,0,0,2.5937,2.6007,2.6015,2.604,2.6093,2.6124,2.6164,2.621,2.6231,2.627,2.6303,2.6361,2.6363,2.6392,2.641,2.6434,2.6461,2.6434,2.6435,2.6436,2.6509,2.6506,2.6511,2.6468,2.6469,2.647,2.6505,0,2.5973,2.6045,2.6071,2.6129,2.6167,2.6186,2.622,2.6256,2.628,2.6315,2.6342,2.6381,2.6383,2.6399,2.6423,2.6452,2.6475,2.645,2.6498,2.6499,2.6485,2.6518,2.6515,2.6546,2.651,2.6511,2.6512,0,2.6025,2.6063,2.6125,2.6172,2.6188,2.6219,2.6262,2.6295,2.6336,2.6351,2.6382,2.6399,2.644,2.6432,2.6488,2.647,2.6492,2.6509,2.651,2.6516,2.6506,2.6523,2.6557,2.6562,2.652,2.6519,2.6519,0,2.6033,2.6101,2.6146,2.6167,2.6223,2.6243,2.6267,2.6307,2.6332,2.637,2.6387,2.6429,2.6452,2.6484,2.6511,2.6504,2.6564,2.656,2.6578,2.6577,2.6589,2.6588,2.6627,2.6604,2.6604,2.6604,2.6604,0,2.607,2.6106,2.6151,2.6178,2.622,2.6249,2.6289,2.6314,2.6349,2.6381,2.6401,2.6431,2.6466,2.65,2.6522,2.6564,2.6574,2.6587,2.6593,2.6585,2.6583,2.6599,2.6597,2.6605,2.6605,2.6605,2.6604,0,2.6086,2.6118,2.6168,2.6217,2.6229,2.6258,2.6299,2.6326,2.6351,2.6391,2.6402,2.6441,2.6482,2.6512,2.6566,2.658,2.6625,2.6631,2.6611,2.6613,2.6629,2.6627,2.6679,2.6687,2.6659,2.666,2.666,0,2.6107,2.6136,2.6187,2.621,2.6234,2.6271,2.6297,2.6327,2.6353,2.64,2.6421,2.6463,2.6499,2.6563,2.6595,2.6635,2.6642,2.6657,2.6648,2.6639,2.6641,2.6638,2.6641,2.6658,2.6658,2.6658,2.6659,0,2.6141,2.6154,2.6191,2.6233,2.6263,2.6297,2.6332,2.6349,2.6385,2.6413,2.6455,2.6482,2.6536,2.6577,2.662,2.6645,2.6657,2.6661,2.6667,2.666,2.6647,2.6653,2.6613,2.666,2.666,2.666,2.6659,2.6659,2.616,2.6185,2.6225,2.6265,2.6294,2.6325,2.6352,2.638,2.6416,2.6462,2.6477,2.652,2.6558,2.6617,2.6641,2.6675,2.6675,2.6684,2.6686,2.6688,2.6686,2.6642,2.6683,2.6683,2.6683,2.6683,2.6683,0,2.6193,2.6219,2.6255,2.6303,2.6334,2.6343,2.6381,2.6406,2.6444,2.6478,2.6512,2.6559,2.6599,2.6634,2.6675,2.6695,2.6701,2.6704,2.6703,2.6708,2.6685,2.6675,2.6698,2.6698,2.6698,2.6698,2.6698,2.6698,2.6214,2.6257,2.6275,2.6333,2.6359,2.6401,2.6422,2.645,2.6478,2.653,2.6563,2.6585,2.6619,2.6663,2.6699,2.6708,2.6722,2.6723,2.6734,2.6711,2.671,2.6708,2.6699,2.6726,2.6726,2.6754,2.6754,2.6754]},{"header":{"parameterUnit":"m.s-1","parameterCategory":1,"la1":30.2991,"la2":30.254,"lo1":-89.0895,"lo2":-89.0444,"dy":0.0017,"dx":0.0017,"nx":28,"ny":28,"refTime":"2025-03-10T21:00:00:Z","depth":0,"parameterNumber":3,"parameterNumberName":"V-component_of_WINDS"},"data":[0,0,0,0,0,0,0,0,0,0,0,0,0,0,0,0,0,0,0,0,0,0,0,0,0,0,0,0,0,0,0,0,0,0,0,0,0,0,0,0,0,0,0,0,0,0,0,0,0,0,0,0,0,0,0,0,0,0,3.2808,3.2808,0,3.2806,3.2806,3.2806,3.2799,3.2799,3.2799,3.2799,3.2796,3.2796,3.2796,0,0,0,0,0,0,0,0,0,0,0,0,0,3.2807,3.2807,3.2808,3.2808,3.2808,3.2806,3.2806,3.2806,3.2799,3.2799,3.2799,3.2799,3.2796,3.2796,3.2796,0,0,0,0,0,0,0,0,0,0,0,0,0,3.2806,3.2807,3.2808,3.2805,3.2804,3.2806,3.2806,3.2806,3.2799,3.2799,3.2799,3.2799,3.2796,3.2796,3.2796,3.2801,0,0,3.2796,3.2796,0,0,0,0,0,0,0,0,3.2806,3.2806,3.2805,3.2805,3.2805,3.2803,3.2804,3.2804,3.28,3.2801,3.2799,3.2799,3.2798,3.2798,3.2798,3.2801,3.28,3.2796,3.2797,3.2797,3.2797,0,0,0,0,0,0,0,3.2806,3.2806,3.2807,3.2805,3.2805,3.2803,3.2803,3.2804,3.2801,3.2801,3.2801,3.2801,3.2798,3.2798,3.2798,3.28,3.2796,3.2797,3.2797,3.2797,3.2806,3.2807,0,0,0,0,0,0,3.2807,3.2806,3.2807,3.2807,3.2805,3.2803,3.2803,3.2803,3.2801,3.28,3.2801,3.28,3.2798,3.2798,3.2798,3.2803,3.2797,3.2797,3.2797,3.2806,3.2807,3.2807,0,0,0,0,0,0,3.2807,3.2807,3.2807,3.2807,3.2807,3.2804,3.2804,3.2804,3.2804,3.2801,3.28,3.2801,3.2798,3.2798,3.28,3.2803,3.2797,3.2797,3.2806,3.2806,3.2807,3.2814,0,0,0,0,0,0,3.2807,3.2807,3.2809,3.2807,3.2807,3.281,3.2804,3.2804,3.2804,3.2803,3.2801,3.2801,3.2798,3.28,3.28,3.2803,3.2797,3.2806,3.2806,3.2807,3.2813,3.2814,3.2815,0,0,0,0,0,3.2807,3.2811,3.2809,3.2809,3.2809,3.281,3.281,3.2807,3.2804,3.2806,3.2804,3.2801,3.2803,3.28,3.28,3.2803,3.2805,3.2806,3.2806,3.2813,3.2814,3.2815,0,0,0,0,0,0,3.2813,3.281,3.2808,3.2812,3.2811,3.2809,3.2811,3.2808,3.2808,3.2807,3.2804,3.2803,3.2806,3.2805,3.2802,3.2808,3.2804,3.2804,3.2808,3.2809,3.281,3.2811,3.2797,0,0,0,0,0,3.2814,3.2816,3.2813,3.2816,3.2816,3.2814,3.2814,3.2812,3.2811,3.2811,3.2809,3.2808,3.2809,3.2809,3.2809,3.2813,3.2813,3.2815,3.2816,3.2817,3.2817,3.2819,3.2821,3.2808,3.2808,3.2808,0,0,3.2818,3.2817,3.2818,3.2818,3.2817,3.2818,3.2813,3.2815,3.2816,3.2811,3.2813,3.2812,3.281,3.2814,3.2815,3.2813,3.2821,3.2817,3.2818,3.2818,3.282,3.2821,3.2822,3.2809,3.2809,3.2809,0,0,3.2825,3.2824,3.2827,3.2826,3.2825,3.2824,3.2824,3.2823,3.2822,3.2824,3.282,3.2821,3.2822,3.2821,3.2821,3.2829,3.2826,3.2829,3.2834,3.2836,3.2837,3.2838,3.284,3.2841,3.2829,3.2829,3.2829,0,3.2829,3.2831,3.2828,3.283,3.283,3.2826,3.2829,3.2828,3.2828,3.2828,3.2826,3.2827,3.2826,3.2829,3.2831,3.2831,3.2831,3.2829,3.2837,3.2838,3.2838,3.2841,3.2842,3.283,3.283,3.283,3.283,0,3.2837,3.2838,3.284,3.284,3.284,3.2843,3.284,3.2841,3.2839,3.2837,3.284,3.2838,3.2838,3.2839,3.2837,3.2842,3.2841,3.2838,3.2833,3.284,3.2842,3.2843,3.283,3.283,3.283,3.283,0,0,3.2847,3.2845,3.2846,3.2846,3.2845,3.2846,3.2848,3.2849,3.285,3.2849,3.2851,3.2852,3.285,3.2849,3.2847,3.2849,3.2855,3.2846,3.2846,3.2848,3.2861,3.2863,3.2864,3.2853,3.2853,3.2854,3.2861,0,3.2854,3.2857,3.2855,3.2859,3.2861,3.2857,3.2859,3.2858,3.2857,3.2858,3.2857,3.2857,3.2854,3.2854,3.2856,3.2854,3.2858,3.2853,3.2855,3.2855,3.2855,3.2865,3.2868,3.2875,3.2862,3.2862,3.2862,0,3.2862,3.2862,3.2867,3.2866,3.2866,3.2868,3.2868,3.2869,3.2869,3.2868,3.2868,3.2865,3.2867,3.2863,3.2866,3.2863,3.2864,3.2863,3.2863,3.2863,3.2859,3.2866,3.2877,3.2878,3.2863,3.2863,3.2863,0,3.2869,3.2871,3.2874,3.2874,3.2873,3.2874,3.2874,3.2873,3.2873,3.2874,3.2874,3.2874,3.2875,3.2875,3.2873,3.287,3.2876,3.2872,3.2875,3.2875,3.2876,3.2876,3.2888,3.2877,3.2877,3.2877,3.2877,0,3.2877,3.2879,3.2877,3.2879,3.2882,3.2879,3.2882,3.2881,3.2881,3.2883,3.2879,3.2881,3.2878,3.2879,3.2877,3.288,3.288,3.2879,3.2878,3.2879,3.2879,3.2879,3.2879,3.2877,3.2877,3.2877,3.2877,0,3.2885,3.2883,3.2886,3.2885,3.2885,3.2888,3.2887,3.2888,3.2887,3.2889,3.2889,3.2887,3.2889,3.2886,3.2887,3.2886,3.289,3.2888,3.289,3.289,3.2893,3.2893,3.2905,3.2907,3.2895,3.2895,3.2895,0,3.289,3.2892,3.2892,3.2893,3.2893,3.2894,3.2895,3.2892,3.2893,3.2893,3.2895,3.2896,3.2896,3.2899,3.2897,3.2898,3.2896,3.2901,3.2896,3.2897,3.2897,3.2897,3.2897,3.2901,3.2902,3.2902,3.2902,0,3.2899,3.2898,3.29,3.2901,3.2902,3.2902,3.2903,3.2904,3.2901,3.2902,3.2904,3.2904,3.2905,3.2906,3.2907,3.2906,3.2904,3.2903,3.2904,3.2905,3.2906,3.2906,3.2892,3.2903,3.2903,3.2903,3.2903,3.2903,3.2906,3.2908,3.2908,3.291,3.291,3.291,3.2912,3.2911,3.2912,3.2913,3.2912,3.2914,3.2913,3.2914,3.2913,3.2915,3.2913,3.2914,3.2914,3.2915,3.2916,3.2906,3.2915,3.2915,3.2915,3.2915,3.2915,0,3.2915,3.2915,3.2916,3.2917,3.2919,3.2917,3.2917,3.2918,3.292,3.292,3.2921,3.2923,3.2924,3.2923,3.2924,3.2925,3.2924,3.2925,3.2925,3.2925,3.2917,3.2916,3.2926,3.2926,3.2926,3.2926,3.2926,3.2926,3.292,3.2923,3.2922,3.2926,3.2926,3.2928,3.2928,3.2929,3.2929,3.2931,3.2932,3.2932,3.2931,3.2932,3.2933,3.2933,3.2933,3.2935,3.2935,3.2927,3.2926,3.2925,3.2924,3.2936,3.2936,3.2943,3.2943,3.2943]}]]